Flag for U.S.A. Weather past 2 weeks in Bloomington, Illinois, U.S.A.

Now
76 °F

Passing clouds.


Feels Like: 76 °F
Forecast: 71 / 89 °F
Wind: 10 mph from Southwest

Location: Bloomington / Normal

Current Time: Sep 1, 2015 at 9:26:05 AM

Latest Report: Sep 1, 2015 at 8:56 AM


Visibility: 10 mi

Pressure: 30.06 "Hg

Humidity: 90%

Dew point: 73 °F

Location of BloomingtonLocation

Historic Weather in Bloomington — Graph

°F

Bloomington temperature yesterday

Maximum temperature yesterday: 89 °F (at 2:56 PM)
Minimum temperature yesterday: 65 °F (at 5:56 AM)
Average temperature yesterday: 76 °F

Past Weeks' High & Low Weather Summary

 TemperatureHumidityPressure
High89 °F (Aug 17, 3:56 PM)100% (Aug 18, 1:56 AM)30.21 "Hg (Aug 18, 1:56 AM)
Low52 °F (Aug 27, 1:56 AM)40% (Aug 20, 2:56 PM)29.64 "Hg (Aug 19, 3:56 AM)
Average69 °F78%30.00 "Hg
* Reported Aug 17 7:56 AM — Sep 1 7:56 AM, Bloomington, Weather by CustomWeather, © 2015

Note: Actual official high and low records may vary slightly from our data, if they occured in-between our weather recording intervals... More about our weather records

Advertising

Bloomington weather history for previous 24 hours

 ConditionsComfort  
Time TempWeatherWind HumidityBarometerVisibility
7:56 AM
Tue, Sep 1
73 °FSunny.8 mph100%30.05 "Hg7 mi
6:56 AM71 °FFog.7 mph100%30.06 "Hg4 mi
5:56 AM72 °FClear.9 mph96%30.03 "Hg8 mi
4:56 AM73 °FClear.8 mph97%30.02 "Hg10 mi
3:56 AM72 °FClear.8 mph96%30.02 "Hg9 mi
2:56 AM73 °FPassing clouds.7 mph97%30.02 "Hg10 mi
1:56 AM73 °FClear.8 mph97%30.02 "Hg10 mi
12:56 AM74 °FPassing clouds.8 mph94%30.03 "Hg10 mi
11:56 PM
Mon, Aug 31
75 °FClear.9 mph94%30.03 "Hg10 mi
9:56 PM77 °FPassing clouds.9 mph87%30.03 "Hg10 mi
8:56 PM77 °FClear.8 mph85%30.03 "Hg10 mi
7:56 PM79 °FPassing clouds.9 mph76%30.00 "Hg10 mi
6:56 PM82 °FScattered clouds.9 mph74%30.00 "Hg10 mi
5:56 PM85 °FSunny.10 mph67%30.00 "Hg10 mi
3:56 PM87 °FScattered clouds.9 mph63%30.00 "Hg10 mi
2:56 PM89 °FPassing clouds.12 mph55%30.01 "Hg10 mi
1:56 PM88 °FScattered clouds.8 mph57%30.02 "Hg10 mi
12:56 PM87 °FPartly sunny.9 mph61%30.03 "Hg10 mi
11:56 AM84 °FPartly sunny.8 mph72%30.06 "Hg10 mi
10:56 AM81 °FSunny.5 mph79%30.06 "Hg10 mi
9:56 AM75 °FFog.5 mph97%30.07 "Hg5 mi
Weather by CustomWeather, © 2015

See weather overviewHow to use our weather pages